| time (UTC) | temp F | wind direction | speed knots | gust knots | rain 1hr in | rain 24hr in | rain mn in | humidity % | barometer mb |
| 20260506230003 | 46 | 0 | 0.0 | 0.0 | 0.09 | 0.86 | 0.86 | 99 | 1004.9 |
| 20260506220024 | 46 | 0 | 0.0 | 0.0 | 0.19 | 0.77 | 0.77 | 99 | 1004.7 |
| 20260506210004 | 48 | 360 | 0.0 | 1.7 | 0.01 | 0.70 | 0.58 | 99 | 1004.0 |
| 20260506200003 | 52 | 360 | 0.0 | 1.7 | 0.19 | 0.70 | 0.57 | 99 | 1003.7 |
| 20260506190024 | 55 | 346 | 1.7 | 1.7 | 0.16 | 0.51 | 0.38 | 99 | 1003.9 |
| 20260506180004 | 57 | 43 | 1.7 | 4.3 | 0.05 | 0.35 | 0.22 | 99 | 1004.5 |
| 20260506170004 | 57 | 0 | 0.0 | 0.0 | 0.05 | 0.30 | 0.17 | 99 | 1004.7 |
| 20260506160003 | 55 | 0 | 0.0 | 0.0 | 0.04 | 0.25 | 0.12 | 99 | 1005.7 |
| 20260506150024 | 55 | 0 | 0.0 | 0.0 | 0.02 | 0.21 | 0.08 | 99 | 1006.4 |
| 20260506140004 | 53 | 0 | 0.0 | 0.0 | 0.01 | 0.19 | 0.06 | 99 | 1006.5 |
| 20260506130004 | 54 | 360 | 0.0 | 1.7 | 0.00 | 0.18 | 0.05 | 99 | 1006.8 |
| 20260506120003 | 53 | 360 | 0.0 | 1.7 | 0.00 | 0.18 | 0.05 | 99 | 1006.9 |
| 20260506110003 | 51 | 0 | 0.0 | 0.0 | 0.00 | 0.18 | 0.05 | 99 | 1007.4 |
| 20260506100003 | 51 | 0 | 0.0 | 0.0 | 0.00 | 0.18 | 0.05 | 99 | 1007.4 |
| 20260506090004 | 51 | 0 | 0.0 | 0.0 | 0.00 | 0.18 | 0.05 | 99 | 1007.9 |
| 20260506040003 | 62 | 187 | 6.1 | 11.3 | 0.00 | 0.13 | 0.00 | 82 | 1006.4 |
| 20260506030003 | 61 | 202 | 0.0 | 2.6 | 0.00 | 0.13 | 0.13 | 85 | 1006.4 |
| 20260506020003 | 61 | 142 | 2.6 | 9.6 | 0.00 | 0.13 | 0.13 | 85 | 1006.0 |
| 20260506010003 | 61 | 148 | 4.3 | 9.6 | 0.00 | 0.13 | 0.13 | 87 | 1006.2 |
| 20260506000003 | 61 | 181 | 1.7 | 7.8 | 0.00 | 0.13 | 0.13 | 90 | 1005.5 |